Location: Béaulencourt
(50.0796°N, 2.8795°E)
Time: 01:02:29
(UTC+00:00)

USA 307 - Pass Details

Date: 20 January 2026
Orbit: 495 x 502 km, 54.0° (Epoch: 10 March)

Event Time Altitude Azimuth Distance (km) Brightness Sun altitude
Exits shadow 05:57:58 20° 236° (SW) 1,229 4.2 -15.5°
Maximum altitude 05:58:27 20° 226° (SW) 1,211 4.3 -15.4°
Drops below altitude 10° 06:01:20 10° 178° (S) 1,672 5.5 -15.0°
Sets 06:03:50 0° 162° (SSE) 2,474 6.6 -14.6°
